When you browse on this site, cookies collect data to enhance your experience and personalize the content and advertising you see.
Visit our Privacy Policy to learn more. By continuing to use the site, you agree to this use of cookies and data.

Météo par heure à Beverly

Ce jour, 2 Juillet, Jeudi

Heure Température Précipitation Vent Pression Humidité
00:00 +13°C° 0.4 mm 3 m/s 754 mmHg 95%
01:00 +12°C° 1 mm 3 m/s 754 mmHg 96%
02:00 +12°C° 1 mm 3 m/s 754 mmHg 96%
03:00 +12°C° 1 mm 3 m/s 754 mmHg 96%
04:00 +12°C° 1.5 mm 3 m/s 754 mmHg 96%
05:00 +12°C° 1.5 mm 3 m/s 754 mmHg 96%
06:00 +12°C° 1.5 mm 4 m/s 755 mmHg 96%
07:00 +12°C° 1.1 mm 4 m/s 755 mmHg 95%
08:00 +12°C° 1.1 mm 4 m/s 755 mmHg 94%
09:00 +12°C° 1.1 mm 5 m/s 756 mmHg 93%
10:00 +13°C° 0.1 mm 4 m/s 756 mmHg 91%
11:00 +13°C° 0.1 mm 4 m/s 756 mmHg 88%
12:00 +13°C° 0.1 mm 3 m/s 757 mmHg 86%
13:00 +14°C° 0 mm 3 m/s 757 mmHg 83%
14:00 +16°C° 0 mm 3 m/s 757 mmHg 79%
15:00 +16°C° 0 mm 2 m/s 757 mmHg 75%
16:00 +16°C° 0 mm 2 m/s 757 mmHg 76%
17:00 +16°C° 0 mm 2 m/s 757 mmHg 76%
18:00 +16°C° 0 mm 1 m/s 758 mmHg 77%
19:00 +15°C° 0 mm 2 m/s 758 mmHg 81%
20:00 +14°C° 0 mm 2 m/s 758 mmHg 86%
21:00 +12°C° 0 mm 2 m/s 759 mmHg 91%
22:00 +11°C° 0 mm 3 m/s 759 mmHg 91%
23:00 +11°C° 0 mm 3 m/s 758 mmHg 92%

Demain, 3 Juillet, Vendredi

Heure Température Précipitation Vent Pression Humidité
00:00 +11°C° 0 mm 3 m/s 758 mmHg 92%
01:00 +11°C° 0 mm 3 m/s 758 mmHg 91%
02:00 +11°C° 0 mm 3 m/s 758 mmHg 90%
03:00 +11°C° 0 mm 3 m/s 758 mmHg 88%
04:00 +11°C° 0 mm 3 m/s 758 mmHg 88%
05:00 +12°C° 0 mm 4 m/s 758 mmHg 87%
06:00 +12°C° 0 mm 4 m/s 757 mmHg 87%
07:00 +13°C° 0.1 mm 5 m/s 757 mmHg 85%
08:00 +13°C° 0.1 mm 6 m/s 757 mmHg 84%
09:00 +13°C° 0.1 mm 6 m/s 757 mmHg 83%
10:00 +12°C° 0 mm 7 m/s 757 mmHg 83%
11:00 +14°C° 0 mm 7 m/s 756 mmHg 83%
12:00 +13°C° 0 mm 8 m/s 756 mmHg 83%
13:00 +15°C° 0 mm 7 m/s 756 mmHg 83%
14:00 +15°C° 0 mm 7 m/s 755 mmHg 83%
15:00 +16°C° 0 mm 7 m/s 755 mmHg 83%
16:00 +16°C° 0.1 mm 7 m/s 755 mmHg 84%
17:00 +16°C° 0.1 mm 7 m/s 755 mmHg 86%
18:00 +16°C° 0.1 mm 7 m/s 755 mmHg 87%
19:00 +16°C° 0 mm 6 m/s 756 mmHg 88%
20:00 +16°C° 0 mm 6 m/s 756 mmHg 88%
21:00 +16°C° 0 mm 5 m/s 756 mmHg 89%
22:00 +16°C° 0.1 mm 5 m/s 756 mmHg 90%
23:00 +16°C° 0.1 mm 5 m/s 756 mmHg 91%

Après-demain, 4 Juillet, Samedi

Heure Température Précipitation Vent Pression Humidité
00:00 +15°C° 0.1 mm 4 m/s 756 mmHg 92%
01:00 +15°C° 0.2 mm 4 m/s 756 mmHg 93%
02:00 +15°C° 0.2 mm 4 m/s 756 mmHg 94%
03:00 +15°C° 0.2 mm 5 m/s 755 mmHg 95%
04:00 +15°C° 0.1 mm 5 m/s 755 mmHg 95%
05:00 +16°C° 0.1 mm 5 m/s 755 mmHg 94%
06:00 +16°C° 0.1 mm 6 m/s 754 mmHg 94%
07:00 +17°C° 0.1 mm 6 m/s 754 mmHg 92%
08:00 +17°C° 0.1 mm 6 m/s 754 mmHg 91%
09:00 +18°C° 0.1 mm 7 m/s 754 mmHg 90%
10:00 +18°C° 0.2 mm 7 m/s 754 mmHg 87%
11:00 +20°C° 0.2 mm 7 m/s 754 mmHg 85%
12:00 +20°C° 0.2 mm 7 m/s 754 mmHg 82%
13:00 +21°C° 0.2 mm 6 m/s 754 mmHg 81%
14:00 +21°C° 0.2 mm 6 m/s 754 mmHg 80%
15:00 +21°C° 0.2 mm 6 m/s 754 mmHg 79%
16:00 +20°C° 0.1 mm 5 m/s 754 mmHg 80%
17:00 +20°C° 0.1 mm 5 m/s 754 mmHg 81%
18:00 +19°C° 0.1 mm 5 m/s 754 mmHg 82%
19:00 +19°C° 0 mm 5 m/s 754 mmHg 84%
20:00 +17°C° 0 mm 5 m/s 754 mmHg 85%
21:00 +16°C° 0 mm 5 m/s 754 mmHg 86%
22:00 +17°C° 0 mm 6 m/s 754 mmHg 85%
23:00 +17°C° 0 mm 6 m/s 753 mmHg 84%

5 Juillet, Dimanche

Heure Température Précipitation Vent Pression Humidité
00:00 +17°C° 0 mm 7 m/s 753 mmHg 82%
01:00 +17°C° 0 mm 7 m/s 752 mmHg 81%
02:00 +18°C° 0 mm 7 m/s 752 mmHg 80%
03:00 +18°C° 0 mm 8 m/s 751 mmHg 79%
04:00 +18°C° 0 mm 8 m/s 751 mmHg 80%
05:00 +18°C° 0 mm 8 m/s 751 mmHg 80%
06:00 +18°C° 0 mm 8 m/s 751 mmHg 81%
07:00 +18°C° 0.4 mm 8 m/s 751 mmHg 82%
08:00 +18°C° 0.4 mm 8 m/s 751 mmHg 82%
09:00 +18°C° 0.4 mm 8 m/s 752 mmHg 82%
10:00 +18°C° 0.3 mm 9 m/s 752 mmHg 77%
11:00 +19°C° 0.3 mm 9 m/s 752 mmHg 72%
12:00 +19°C° 0.3 mm 9 m/s 753 mmHg 67%
13:00 +19°C° 0 mm 9 m/s 753 mmHg 65%
14:00 +19°C° 0 mm 9 m/s 753 mmHg 62%
15:00 +20°C° 0 mm 8 m/s 754 mmHg 60%
16:00 +18°C° 0 mm 7 m/s 754 mmHg 62%
17:00 +18°C° 0 mm 7 m/s 754 mmHg 64%
18:00 +17°C° 0 mm 6 m/s 754 mmHg 66%
19:00 +16°C° 0 mm 5 m/s 754 mmHg 66%
20:00 +15°C° 0 mm 5 m/s 755 mmHg 66%
21:00 +14°C° 0 mm 5 m/s 755 mmHg 67%
22:00 +13°C° 0 mm 5 m/s 755 mmHg 69%
23:00 +12°C° 0 mm 5 m/s 755 mmHg 72%

6 Juillet, Lundi

Heure Température Précipitation Vent Pression Humidité
00:00 +10°C° 0 mm 5 m/s 755 mmHg 74%
01:00 +10°C° 0 mm 5 m/s 755 mmHg 75%
02:00 +10°C° 0 mm 5 m/s 755 mmHg 76%
03:00 +9°C° 0 mm 5 m/s 755 mmHg 77%
04:00 +10°C° 0 mm 6 m/s 755 mmHg 77%
05:00 +11°C° 0 mm 7 m/s 755 mmHg 76%
06:00 +11°C° 0 mm 7 m/s 755 mmHg 76%
07:00 +12°C° 0.1 mm 8 m/s 756 mmHg 73%
08:00 +13°C° 0.1 mm 8 m/s 756 mmHg 69%
09:00 +15°C° 0.1 mm 8 m/s 757 mmHg 66%
10:00 +16°C° 0.2 mm 8 m/s 757 mmHg 65%
11:00 +16°C° 0.2 mm 7 m/s 758 mmHg 64%
12:00 +17°C° 0.2 mm 7 m/s 758 mmHg 63%
13:00 +17°C° 0.4 mm 6 m/s 759 mmHg 64%
14:00 +17°C° 0.4 mm 6 m/s 759 mmHg 66%
15:00 +17°C° 0.4 mm 5 m/s 760 mmHg 67%
16:00 +18°C° 0.4 mm 4 m/s 761 mmHg 70%
17:00 +17°C° 0.4 mm 4 m/s 761 mmHg 73%
18:00 +16°C° 0.4 mm 3 m/s 762 mmHg 76%
19:00 +14°C° 0.1 mm 3 m/s 763 mmHg 80%
20:00 +13°C° 0.1 mm 3 m/s 763 mmHg 83%
21:00 +12°C° 0.1 mm 3 m/s 764 mmHg 87%
22:00 +11°C° 0 mm 3 m/s 765 mmHg 87%
23:00 +12°C° 0 mm 2 m/s 765 mmHg 88%

7 Juillet, Mardi

Heure Température Précipitation Vent Pression Humidité
00:00 +12°C° 0 mm 2 m/s 765 mmHg 88%
01:00 +12°C° 0 mm 2 m/s 766 mmHg 88%
02:00 +12°C° 0 mm 1 m/s 766 mmHg 87%
03:00 +11°C° 0 mm 1 m/s 766 mmHg 87%
04:00 +12°C° 0 mm 1 m/s 766 mmHg 85%
05:00 +12°C° 0 mm 1 m/s 767 mmHg 84%
06:00 +13°C° 0 mm 1 m/s 767 mmHg 82%
07:00 +14°C° 0 mm 1 m/s 767 mmHg 78%
08:00 +15°C° 0 mm 2 m/s 767 mmHg 74%
09:00 +16°C° 0 mm 2 m/s 767 mmHg 69%
10:00 +16°C° 0.1 mm 2 m/s 767 mmHg 66%
11:00 +17°C° 0.1 mm 3 m/s 767 mmHg 62%
12:00 +17°C° 0.1 mm 3 m/s 767 mmHg 59%
13:00 +18°C° 0 mm 3 m/s 767 mmHg 58%
14:00 +18°C° 0 mm 3 m/s 767 mmHg 58%
15:00 +18°C° 0 mm 3 m/s 767 mmHg 58%
16:00 +18°C° 0 mm 3 m/s 767 mmHg 62%
17:00 +17°C° 0 mm 3 m/s 767 mmHg 66%
18:00 +17°C° 0 mm 3 m/s 766 mmHg 71%
19:00 +16°C° 0 mm 3 m/s 766 mmHg 74%
20:00 +13°C° 0 mm 3 m/s 767 mmHg 77%
21:00 +12°C° 0 mm 3 m/s 767 mmHg 80%
22:00 +12°C° 0 mm 3 m/s 767 mmHg 80%
23:00 +12°C° 0 mm 3 m/s 766 mmHg 79%
Voir plus